Wreay, United Kingdom

11:20 PM BST on June 20, 2019 (GMT +0100)
Wreay

Weather History for 03222 - December, 2008

Change the Weather History Date:

Tuesday, December 23, 2008

  Actual Average Record
Temperature  
Mean Temperature 44 °F -  
Max Temperature 46 °F 42 °F - ()
Min Temperature 42 °F 37 °F - ()
Degree Days  
Heating Degree Days 21    
Moisture  
Dew Point 42 °F    
Average Humidity 92    
Maximum Humidity 100    
Minimum Humidity 87    
Precipitation  
Precipitation 0.00 in - - ()
Sea Level Pressure  
Sea Level Pressure 30.52 in    
Wind  
Wind Speed 8 mph ()    
Max Wind Speed 16 mph    
Max Gust Speed -    
Visibility 5.5 miles    
Events Rain    
T = Trace of Precipitation, MM = Missing Value Source: Averaged Metar Reports

Daily Weather History Graph

Daily Weather History Graph

Search for Another Location

Airport or City:

Astronomy

Dec. 23, 2008 Rise Set
Actual Time 8:35 AM GMT 3:46 PM GMT
Civil Twilight 7:50 AM GMT 4:32 PM GMT
Nautical Twilight 7:02 AM GMT 5:19 PM GMT
Astronomical Twilight 6:18 AM GMT 6:04 PM GMT
Moon 5:02 AM GMT (12/23) 12:37 PM GMT (12/23)
Length of Visible Light 8h 42m
Length of Day
7h 11m
Waning Crescent, 14% of the Moon is Illuminated
Dec 23
Waning Crescent
Dec 27
New
Jan 4
First Quarter
Jan 11
Full
Jan 18
Last Quarter

Hourly Weather History & Observations

Time (GMT) Temp. Windchill Dew Point Humidity Pressure Visibility Wind Dir Wind Speed Gust Speed Precip Events Conditions
8:50 AM 42.8 °F 40.1 °F 41.0 °F 93% 30.51 in 6.2 mi SW 4.6 mph - N/A   Mostly Cloudy
9:20 AM 42.8 °F 39.3 °F 42.8 °F 100% 30.54 in 6.2 mi WSW 5.8 mph - N/A   Mostly Cloudy
9:50 AM 44.6 °F 40.2 °F 42.8 °F 93% 30.54 in 6.2 mi SW 8.1 mph - N/A   Mostly Cloudy
10:20 AM 44.6 °F 38.8 °F 42.8 °F 93% 30.54 in 6.2 mi WSW 11.5 mph - N/A   Mostly Cloudy
10:50 AM 46.4 °F 39.8 °F 42.8 °F 87% 30.54 in 6.2 mi SW 16.1 mph - N/A   Mostly Cloudy
11:20 AM 46.4 °F 41.5 °F 42.8 °F 87% 30.51 in 6.2 mi SW 10.4 mph - N/A   Mostly Cloudy
11:50 AM 46.4 °F 39.8 °F 42.8 °F 87% 30.51 in 6.2 mi WSW 16.1 mph - N/A   Mostly Cloudy
12:20 PM 46.4 °F 39.8 °F 42.8 °F 87% 30.51 in 6.2 mi WSW 16.1 mph - N/A   Mostly Cloudy
12:50 PM 46.4 °F 40.4 °F 42.8 °F 87% 30.51 in 5.6 mi West 13.8 mph - N/A Rain Light Rain
1:20 PM 44.6 °F 38.8 °F 42.8 °F 93% 30.51 in 5.6 mi West 11.5 mph - N/A Rain Light Rain
1:50 PM 42.8 °F 37.0 °F 42.8 °F 100% 30.51 in 3.1 mi WSW 10.4 mph - N/A Rain Light Rain
2:20 PM 42.8 °F 37.0 °F 42.8 °F 100% 30.48 in 3.1 mi WSW 10.4 mph - N/A Rain Light Rain
2:50 PM 44.6 °F 39.7 °F 42.8 °F 93% 30.48 in 3.1 mi WSW 9.2 mph - N/A Rain Light Rain
3:20 PM 44.6 °F 40.2 °F 42.8 °F 93% 30.48 in 4.3 mi WSW 8.1 mph - N/A   Mostly Cloudy
3:50 PM 44.6 °F 40.7 °F 42.8 °F 93% 30.48 in 5.0 mi WSW 6.9 mph - N/A   Mostly Cloudy
4:20 PM 42.8 °F 38.6 °F 42.8 °F 100% 30.51 in 5.6 mi West 6.9 mph - N/A   Mostly Cloudy
4:50 PM 44.6 °F 40.2 °F 41.0 °F 87% 30.54 in 5.6 mi West 8.1 mph - N/A   Mostly Cloudy
5:20 PM 42.8 °F 40.1 °F 41.0 °F 93% 30.54 in 6.2 mi West 4.6 mph - N/A   Scattered Clouds
5:50 PM 42.8 °F 41.1 °F 41.0 °F 93% 30.54 in 6.2 mi West 3.5 mph - N/A   Scattered Clouds
6:20 PM 42.8 °F - 39.2 °F 87% 30.54 in 6.2 mi SSE 2.3 mph - N/A   Partly Cloudy